Regional Weather Roundup
Issued by NWS

Home | Current Version | Previous Version | Graphics & Text | Print | Product List | Glossary On
Versions: 1 2 3 4 5 6 7 8 9 10 11 12 13 14 15 16 17 18 19 20 21 22 23 24 25 26 27 28 29 30 31 32 33 34 35 36 37 38 39 40 41 42 43 44 45 46 47 48 49 50
000
ASUS43 KIND 230059
RWRIN

WEATHER ROUNDUP FOR INDIANA
NATIONAL WEATHER SERVICE INDIANAPOLIS IN
800 PM EST SUN JAN 22 2017

NOTE: "FAIR" INDICATES FEW OR NO CLOUDS BELOW 12,000 FEET WITH NO
SIGNIFICANT WEATHER AND/OR OBSTRUCTIONS TO VISIBILITY.

* - STATION DOES NOT REPORT WEATHER SUCH AS PRECIPITATION OR FOG.

+ - STATION NOT QUALITY CONTROLLED BY THE NATIONAL WEATHER SERVICE.
    USE DATA WITH CAUTION...ESPECIALLY DEWPOINT AND RELATIVE
    HUMIDITY OBSERVATIONS.

INZ001>003-010>013-019-020-230200-
NORTHWEST INDIANA

CITY           SKY/WX    TMP DP  RH WIND       PRES   REMARKS
GARY /AIRPORT/ MOCLDY    39  39 100 N12       29.63F FOG
MONTICELLO +   CLOUDY    44  43  96 N8G17     29.58R FOG

$$

LMZ046-743>745-230200-
SOUTHERN LAKE MICHIGAN

STATION/POSITION TIME  TEMP    WIND        PRES    WAVE
                       AIR SEA DIR/SP/G            HT
                 (UTC) (F)     (DEG/KT/KT) (MB)    (FT)
BURNS HARBOR     0040   37      10/ 11/ 13 1003.7F
MICHIGAN CITY    0030   37     340/ 15/ 15   N/A

$$

INZ004-005-014>016-021>024-230200-
NORTH CENTRAL INDIANA

CITY           SKY/WX    TMP DP  RH WIND       PRES   REMARKS
GOSHEN         FOG       43  41  93 N9        29.60R VSB 3/4
SOUTH BEND     FOG       41  41 100 N12       29.62R VSB 1/2

$$

INZ006>009-017-018-025>027-230200-
NORTHEAST INDIANA

CITY           SKY/WX    TMP DP  RH WIND       PRES   REMARKS
ANGOLA *+      CLOUDY    48  34  57 NE6       29.59R
FORT WAYNE     CLOUDY    50  47  89 N8        29.57R
KENDALLVILLE + CLOUDY    48  48 100 NE8       29.59R FOG

$$

INZ028-029-035-036-043>045-051>053-230200-
WEST CENTRAL INDIANA

CITY           SKY/WX    TMP DP  RH WIND       PRES   REMARKS
CRAWFORDSVL +  CLOUDY    46  46 100 N10       29.55R
LAFAYETTE      CLOUDY    45  44  97 N13       29.58R
TERRE HAUTE    CLOUDY    51  47  86 N12       29.53R

$$

INZ030>032-037>040-046>048-054>057-064-065-230200-
CENTRAL INDIANA

CITY           SKY/WX    TMP DP  RH WIND       PRES   REMARKS
COLUMBUS       CLOUDY    55  54  94 N13       29.48R
INDIANAPOLIS   CLOUDY    55  50  83 N15       29.52R
-EAGLE CREEK   CLOUDY    54  49  83 N9        29.53R
KOKOMO +       CLOUDY    49  47  93 N10       29.57R
MT COMFORT *+  CLOUDY    54  50  87 NE10      29.53R
SHELBYVILLE    CLOUDY    57  50  77 N12       29.50R

$$

INZ033-034-041-042-049-050-058-059-230200-
EAST CENTRAL INDIANA

CITY           SKY/WX    TMP DP  RH WIND       PRES   REMARKS
MUNCIE         CLOUDY    55  51  86 NE9       29.54R

$$

INZ060-061-067>069-081>083-085>088-230200-
SOUTHWEST INDIANA

CITY           SKY/WX    TMP DP  RH WIND       PRES   REMARKS
EVANSVILLE     CLOUDY    59  49  69 N9        29.45R
HUNTINGBURG *+ CLOUDY    57  50  77 N7        29.44S

$$

INZ062-063-066-070>080-084-089>092-230200-
SOUTH CENTRAL AND SOUTHEAST INDIANA

CITY           SKY/WX    TMP DP  RH WIND       PRES   REMARKS
BLOOMINGTON    MOCLDY    57  49  74 N12       29.49R
MADISON *+     CLOUDY    59  46  63 NE12G17   29.45R
SEYMOUR +      CLOUDY    59  52  77 N14       29.45R

$$





USA.gov is the U.S. government's official web portal to all federal, state and local government web resources and services.